User: anonymous   Login
Location: Newark
(49.8348°N, 24.0280°E)
Time: 00:56:07
(UTC+00:00)
Language:

Transit 4A - Orbit

View from above orbital plane
View from above orbital plane
View from above satellite
View from above satellite

Ground track
Ground track

The orbit data is extracted from the following two-line orbital elements,

1   116U 61015A   20027.04443911 -.00000084  00000-0 -55004-5 0  9991
2   116  66.8081 196.3417 0069436 110.3661 250.4896 13.91764781972498
Epoch (UTC): 27 January 2020 01:03:59
Eccentricity: 0.0069436
inclination: 66.8081°
perigee height: 872 km
apogee height: 973 km
right ascension of ascending node: 196.3417°
argument of perigee: 110.3661°
revolutions per day: 13.91764781
mean anomaly at epoch: 250.4896°
orbit number at epoch: 97249

The dashed part of the orbit path shows where the satellite is in the earth's shadow,  

DLR